This demonstration page uses our WeatherBlox Daily Observations layout. Learn more.

Left ArrowRight Arrow

Hourly Observations for December 26, 2017

Temp ( °F °C ) Dew Point ( °F °C ) Humidity (%) Winds ( mph kmh ) Pressure ( in mb ) Visibility ( mi km ) Precip ( " mm )
12:15 am 00:15 Clear 30 -1 10 -12 43 43 NW 9 15 30.39 1029 10 16 N/A
12:30 am 00:30 Clear 30 -1 10 -12 43 43 WNW 12 19 30.39 1029 10 16 N/A
12:55 am 00:55 Clear 28 -2 10 -12 47 47 NW 9 15 30.39 1029 10 16 N/A
1:15 am 01:15 Clear 30 -1 10 -12 43 43 NW 9 15 30.39 1029 10 16 N/A
1:35 am 01:35 Clear 28 -2 10 -12 47 47 NW 10 17 30.39 1029 10 16 N/A
1:55 am 01:55 Clear 28 -2 10 -12 47 47 NW 12 19 30.39 1029 10 16 N/A
2:15 am 02:15 Clear 28 -2 10 -12 47 47 NW 13 20 30.42 1030 10 16 N/A
2:35 am 02:35 Clear 28 -2 12 -11 51 51 WNW 12 19 30.42 1030 10 16 N/A
2:55 am 02:55 Clear 28 -2 12 -11 51 51 WNW 12 19 30.42 1030 10 16 N/A
3:15 am 03:15 Clear 28 -2 12 -11 51 51 W 5 7 30.42 1030 10 16 N/A
3:35 am 03:35 Clear 28 -2 12 -11 51 51 WNW 5 7 30.42 1030 10 16 N/A
3:55 am 03:55 Clear 28 -2 12 -11 51 51 N N/A 30.42 1030 10 16 N/A
4:15 am 04:15 Clear 28 -2 12 -11 51 51 N N/A 30.42 1030 10 16 N/A
4:35 am 04:35 Clear 28 -2 14 -10 55 55 W 3 6 30.42 1030 10 16 N/A
4:55 am 04:55 Clear 28 -2 14 -10 55 55 W 5 7 30.45 1031 10 16 N/A
5:15 am 05:15 Clear 28 -2 12 -11 51 51 N N/A 30.45 1031 10 16 N/A
5:35 am 05:35 Clear 28 -2 14 -10 55 55 N N/A 30.45 1031 10 16 N/A
5:55 am 05:55 Clear 28 -2 14 -10 55 55 N N/A 30.48 1032 10 16 N/A
6:15 am 06:15 Clear 28 -2 14 -10 55 55 N N/A 30.48 1032 10 16 N/A
6:35 am 06:35 Clear 27 -3 14 -10 59 59 NW 3 6 30.48 1032 10 16 N/A
6:55 am 06:55 Clear 28 -2 14 -10 55 55 N N/A 30.48 1032 10 16 N/A
7:15 am 07:15 Clear 28 -2 14 -10 55 55 NW 6 9 30.48 1032 10 16 N/A
7:35 am 07:35 Sunny 28 -2 14 -10 55 55 WNW 3 6 30.48 1032 10 16 N/A
7:55 am 07:55 Sunny 27 -3 18 -8 69 69 N N/A 30.48 1032 10 16 N/A
8:15 am 08:15 Sunny 27 -3 14 -10 59 59 N N/A 30.48 1032 10 16 N/A
8:35 am 08:35 Sunny 28 -2 12 -11 51 51 N N/A 30.48 1032 10 16 N/A
8:55 am 08:55 Sunny 28 -2 14 -10 55 55 N N/A 30.50 1033 10 16 N/A
9:15 am 09:15 Sunny 28 -2 14 -10 55 55 N N/A 30.50 1033 10 16 N/A
9:35 am 09:35 Sunny 28 -2 18 -8 64 64 NW 3 6 30.53 1034 10 16 N/A
9:55 am 09:55 Sunny 30 -1 14 -10 51 51 N N/A 30.53 1034 10 16 N/A
10:15 am 10:15 Sunny 30 -1 14 -10 51 51 WNW 3 6 30.53 1034 10 16 N/A
10:35 am 10:35 Sunny 32 undefined 12 -11 44 44 WNW 8 13 30.53 1034 10 16 N/A
10:55 am 10:55 Sunny 32 undefined 12 -11 44 44 NW 14 22 30.50 1033 10 16 N/A
11:15 am 11:15 Sunny 32 undefined 12 -11 44 44 NNW 14 22 30.50 1033 10 16 N/A
11:35 am 11:35 Sunny 34 1 12 -11 41 41 WNW 12 19 30.50 1033 10 16 N/A
11:55 am 11:55 Sunny 34 1 12 -11 41 41 NW 13 20 30.48 1032 10 16 N/A
12:15 pm 12:15 Sunny 34 1 12 -11 41 41 NW 10 17 30.48 1032 10 16 N/A
12:35 pm 12:35 Sunny 34 1 14 -10 44 44 NW 9 15 30.48 1032 10 16 N/A
12:55 pm 12:55 Sunny 36 2 14 -10 41 41 WNW 10 17 30.45 1031 10 16 N/A
1:15 pm 13:15 Sunny 36 2 14 -10 41 41 W 7 11 30.45 1031 10 16 N/A
1:35 pm 13:35 Sunny 36 2 14 -10 41 41 WNW 10 17 30.45 1031 10 16 N/A
1:55 pm 13:55 Sunny 36 2 14 -10 41 41 NW 9 15 30.45 1031 10 16 N/A
2:15 pm 14:15 Partly Cloudy 37 3 16 -9 41 41 NW 14 22 30.45 1031 10 16 N/A
2:35 pm 14:35 Partly Cloudy 37 3 18 -8 45 45 NW 8 13 30.45 1031 10 16 N/A
2:55 pm 14:55 Partly Cloudy 37 3 18 -8 45 45 NW 9 15 30.45 1031 10 16 N/A
3:15 pm 15:15 Sunny 36 2 18 -8 48 48 NNW 12 19 30.45 1031 10 16 N/A
3:35 pm 15:35 Mostly Cloudy 36 2 18 -8 48 48 NW 12 19 30.45 1031 10 16 N/A
3:55 pm 15:55 Mostly Cloudy 34 1 18 -8 51 51 NW 9 15 30.48 1032 10 16 N/A
4:15 pm 16:15 Sunny 36 2 18 -8 48 48 NW 8 13 30.48 1032 10 16 N/A
4:35 pm 16:35 Sunny 34 1 18 -8 51 51 WNW 9 15 30.48 1032 10 16 N/A
4:55 pm 16:55 Clear 34 1 18 -8 51 51 NW 8 13 30.48 1032 10 16 N/A
5:15 pm 17:15 Partly Cloudy 32 undefined 18 -8 55 55 NW 7 11 30.48 1032 10 16 N/A
5:35 pm 17:35 Partly Cloudy 32 undefined 18 -8 55 55 N N/A 30.48 1032 10 16 N/A
5:55 pm 17:55 Clear 32 undefined 18 -8 55 55 N N/A 30.48 1032 10 16 N/A
6:15 pm 18:15 Partly Cloudy 32 undefined 18 -8 55 55 NNW 8 13 30.48 1032 10 16 N/A
6:35 pm 18:35 Mostly Cloudy 32 undefined 18 -8 55 55 NW 7 11 30.48 1032 10 16 N/A
6:55 pm 18:55 Cloudy 32 undefined 19 -7 60 60 NW 9 15 30.50 1033 10 16 N/A
7:15 pm 19:15 Cloudy 32 undefined 18 -8 55 55 NNW 10 17 30.48 1032 10 16 N/A
7:35 pm 19:35 Cloudy 32 undefined 18 -8 55 55 NW 12 19 30.50 1033 10 16 N/A
7:55 pm 19:55 Cloudy 32 undefined 18 -8 55 55 NW 9 15 30.50 1033 10 16 N/A
8:15 pm 20:15 Mostly Cloudy 32 undefined 18 -8 55 55 NW 10 17 30.50 1033 10 16 N/A
8:35 pm 20:35 Cloudy 32 undefined 18 -8 55 55 NW 12 19 30.48 1032 10 16 N/A
8:55 pm 20:55 Cloudy 32 undefined 18 -8 55 55 NW 9 15 30.48 1032 10 16 N/A
9:15 pm 21:15 Cloudy 32 undefined 18 -8 55 55 NW 6 9 30.48 1032 10 16 N/A
9:35 pm 21:35 Cloudy 32 undefined 18 -8 55 55 WNW 6 9 30.48 1032 10 16 N/A
9:55 pm 21:55 Cloudy 32 undefined 18 -8 55 55 NNW 9 15 30.48 1032 10 16 N/A
10:15 pm 22:15 Cloudy 32 undefined 18 -8 55 55 NNW 7 11 30.48 1032 10 16 N/A
10:35 pm 22:35 Cloudy 32 undefined 18 -8 55 55 N N/A 30.48 1032 10 16 N/A
10:55 pm 22:55 Cloudy 32 undefined 18 -8 55 55 N N/A 30.48 1032 10 16 N/A
11:15 pm 23:15 Cloudy 32 undefined 18 -8 55 55 N N/A 30.48 1032 10 16 N/A
11:35 pm 23:35 Cloudy 32 undefined 18 -8 55 55 N 3 6 30.48 1032 10 16 N/A
11:55 pm 23:55 Cloudy 32 undefined 18 -8 55 55 N 5 7 30.48 1032 10 16 N/A

Powered by AerisWeather